sat.trackr.live / text

‹ back to catalog

STARLINK-34888

NORAD 65471 · 2025-195P

PAYLOAD ACTIVE UNKNOWN

§ Identity

Operator
Country
US
Launch date
2025-09-03
Launch site
AFETR
Launch vehicle
Mass (kg)
RCS (m²)

Purposes: comms

External: N2YO · Heavens-Above · Gunter

§ Orbital elements

Epoch: 2026-09-20T17:28:52.419936Z

Period
93.85 min
Inclination
53.1587°
Eccentricity
0.0000746
Mean motion
15.34363707 rev/d
Perigee alt
462.3 km
Apogee alt
463.3 km
Semi-major
6,840.9 km
B*
8.6637e-4
RAAN
68.7946°
Arg perigee
47.8305°
Mean anomaly
312.2761°
Rev number
5,990

§ Raw data

STARLINK-348881 65471U 25195P   26263.72838449  .00028975  00000+0  86637-3 0  99922 65471  53.1587  68.7946 0000746  47.8305 312.2761 15.34363707 59902

JSON: /api/v1/satellites/65471 · /tle

For live sub-satellite position, see the globe view (requires WebGL).

§ Visibility from observer

Set your observer location to see the next 7 days of passes ≥ 10°. The values pass through the URL so the page stays shareable.

No JS? Fill the form by hand. The geolocation button needs JavaScript.